Location: Glums�
(55.3568°N, 11.6856°E)
Time: 22:51:22
(UTC+00:00)

Cosmos 1461 - Pass Details

Date: 07 June 2020
Orbit: 504 x 662 km, 65.0° (Epoch: 14 July)

Event Time Altitude Azimuth Distance (km) Brightness Sun altitude
Rises 01:31:50 0° 312° (NW) 2,909 6.6 -6.4°
Reaches altitude 10° 01:34:07 10° 315° (NW) 2,022 5.9 -6.2°
Maximum altitude 01:38:42 63° 38° (NE) 726 3.8 -5.9°
Drops below altitude 10° 01:43:23 10° 120° (ESE) 2,073 5.8 -5.5°
Sets 01:45:44 0° 123° (ESE) 2,989 6.6 -5.3°
